NOAA 16 DEB, 41509

Orbit data source: Space-Track

NOAA 16 DEB, 41509 is space debris in SSO originally from a launch on Thu, 21 Sep 2000 UTC launched from the Air Force Western Test Range (AFWTR). Debris objects in space refer to the collection of defunct objects orbiting the Earth. Examples of debris include non-operational satellites, rocket bodies, and fragments generated from explosions, collisions, or faulty payload assembly.

Loading next visibility...
Identifier
41509, 2000-055MH
Orbit
SSO
Country
Flag of USUS
Related business
Manufacturer
Unknown
Mission
Spacecraft
Bus & Motor
Unknown
Mass
Unknown
Launch date (UTC)
2000-09-21 (26 years ago)
Launch vehicle
Unknown
Launch site
Air Force Western Test Range (AFWTR)
Object type
Payload
Rocket body
Debris
Shape & HBR
Unknown shape, 0.1 m
Radar Cross Section
Medium (>0.1 m² and <1 m²)

Expand to show TLE details & history
Last TLE update: 4 days ago

TLE from 4 days ago
0 NOAA 16 DEB
1 41509U 00055MH  26169.24272044  .00002884  00000-0  10866-2 0  9993
2 41509  98.7624 269.1483 0014007 333.9945  26.0532 14.32167247529931
Epoch: 2026-06-18T05:49Z
TLE epoch observation values (Epoch: 2026-06-18T05:49:31.046Z)
Latitude
-0.00008°
Longitude
-84.7199°
Altitude
778.413 km
Speed
7.469 km/s
True Right ascension
17h 56m 35s
True Declination
0° 00' 00"
Sunlit
Object was in full shadow at epoch
Visualization orbit readout
Latitude
Unknown
Longitude
Unknown
Altitude
Unknown
Speed
Unknown
Apparent Right ascension
Unknown
Apparent Declination
Unknown
Sunlit
N/A
Visualization observer readout
Local Sidereal Time
21:43:29
Azimuth
Unknown
Elevation
Unknown
Doppler factor
Unknown
Orbital elements
Apogee altitude
791.669 km
Perigee altitude
771.612 km
Semi-major axis
7,159.778 km
Eccentricity
0.0014
Inclination
98.7624°
RAAN
269.1483°
Arg. of periapsis
333.9945°
True anomaly
26.12381°
Mean anomaly
26.0532°
Eccentric anomaly
26.08849°
Mean motion
3.58256 °/min
Orbital period
100.49 mins
BSTAR
0.0010866
Loading maneuver chart data...
Computing Atmospheric mass density...
Loading historical data...
Loading historical data...
Loading historical data...
Loading historical data...
Loading historical data...
Loading historical data...
Loading historical data...

Documentation

Showing up to 5 results
|